Location: Kershaw
(34.5481°N, 80.5823°W)
Time: 17:06:41
(UTC+00:00)

Transit 2A - Pass Details

Date: 06 October 2022
Orbit: 598 x 959 km, 66.7° (Epoch: 06 December)

Event Time Altitude Azimuth Distance (km) Brightness Sun altitude
Rises 02:07:20 0° 172° (S) 2,981 - -38.5°
Reaches altitude 10° 02:10:11 10° 155° (SSE) 2,021 - -39.0°
Maximum altitude 02:13:26 20° 109° (ESE) 1,446 - -39.6°
Drops below altitude 10° 02:16:36 10° 62° (ENE) 1,952 - -40.2°
Sets 02:19:17 0° 45° (NE) 2,845 - -40.7°
